Weather History for KIND - December, 2013

Change the Weather History Date:

Wednesday, December 11, 2013

  Actual Average Record
Temperature  
Mean Temperature 20 °F 33 °F  
Max Temperature 30 °F 40 °F 66 °F (1931)
Min Temperature 9 °F 25 °F -9 °F (1977)
Degree Days  
Heating Degree Days 45 32  
Month to date heating degree days 368 335  
Since 1 July heating degree days 1512 1377  
Cooling Degree Days 0 0  
Month to date cooling degree days 0 0  
Year to date cooling degree days 1160 1066  
Moisture  
Dew Point 12 °F    
Average Humidity 78    
Maximum Humidity 92    
Minimum Humidity 63    
Precipitation  
Precipitation T in 0.10 in 1.87 in (1931)
Month to date precipitation 0.45 1.14  
Year to date precipitation 41.93 40.41  
Snow  
Snow T in 0.20 in 5.00 in (1884)
Month to date snowfall 5.2 1.7  
Since 1 July snowfall 5.3 2.8  
Snow Depth 3.00 in    
Sea Level Pressure  
Sea Level Pressure 30.41 in    
Wind  
Wind Speed 9 mph (West)    
Max Wind Speed 21 mph    
Max Gust Speed 28 mph    
Visibility 9 miles    
Events Snow    
T = Trace of Precipitation, MM = Missing Value Source: NWS Daily Summary

Daily Weather History Graph

Daily Weather History Graph

Search for Another Location

Airport or City:

Trip Planner

Search our weather history database for the weather conditions in past years. The results will help you decide how hot, cold, wet, or windy it might be!

Date:

Astronomy

Dec. 11, 2013 Rise Set
Actual Time 7:56 AM EST 5:20 PM EST
Civil Twilight 7:25 AM EST 5:51 PM EST
Nautical Twilight 6:52 AM EST 6:25 PM EST
Astronomical Twilight 6:19 AM EST 6:57 PM EST
Moon 1:53 PM EST (12/11) 2:17 AM EST (12/11)
Length of Visible Light 10h 25m
Length of Day
9h 24m
Waxing Gibbous, 71% of the Moon is Illuminated
Dec 11
Waxing Gibbous
Dec 17
Full
Dec 25
Last Quarter
Jan 1
New
Jan 7
First Quarter

Hourly Weather History & Observations

Time (EST) Temp. Windchill Dew Point Humidity Pressure Visibility Wind Dir Wind Speed Gust Speed Precip Events Conditions
12:54 AM 15.1 °F 7.7 °F 10.0 °F 80% 30.35 in 10.0 mi SW 4.6 mph - N/A   Clear
1:54 AM 14.0 °F 6.5 °F 9.0 °F 80% 30.35 in 10.0 mi WSW 4.6 mph - N/A   Clear
2:54 AM 15.1 °F 9.4 °F 10.0 °F 80% 30.36 in 10.0 mi SW 3.5 mph - N/A   Clear
3:54 AM 12.9 °F 6.9 °F 9.0 °F 84% 30.37 in 9.0 mi SW 3.5 mph - N/A   Overcast
4:54 AM 15.1 °F 9.4 °F 10.0 °F 80% 30.34 in 9.0 mi East 3.5 mph - N/A   Scattered Clouds
5:54 AM 15.1 °F 5.2 °F 10.0 °F 80% 30.33 in 10.0 mi SSE 6.9 mph - N/A   Scattered Clouds
6:54 AM 12.9 °F 3.8 °F 10.0 °F 88% 30.36 in 9.0 mi SSW 5.8 mph - N/A   Mostly Cloudy
7:54 AM 15.1 °F 4.2 °F 10.9 °F 84% 30.35 in 7.0 mi South 8.1 mph - N/A   Mostly Cloudy
8:54 AM 17.1 °F 10.0 °F 14.0 °F 88% 30.35 in 5.0 mi SSW 4.6 mph - N/A   Mostly Cloudy
9:54 AM 19.9 °F 8.6 °F 17.1 °F 89% 30.35 in 8.0 mi SSW 10.4 mph - N/A   Mostly Cloudy
10:54 AM 23.0 °F 14.7 °F 18.0 °F 81% 30.34 in 10.0 mi SSW 6.9 mph - N/A   Mostly Cloudy
11:54 AM 26.1 °F 16.2 °F 18.0 °F 71% 30.34 in 10.0 mi WSW 10.4 mph - N/A   Scattered Clouds
12:54 PM 28.9 °F 19.2 °F 19.0 °F 67% 30.33 in 10.0 mi West 11.5 mph - N/A   Scattered Clouds
1:54 PM 28.0 °F 17.5 °F 18.0 °F 66% 30.35 in 10.0 mi WNW 12.7 mph - N/A   Mostly Cloudy
2:54 PM 27.0 °F 14.7 °F 18.0 °F 69% 30.37 in 10.0 mi NW 16.1 mph - N/A   Overcast
3:25 PM 26.6 °F 15.7 °F 17.6 °F 69% 30.34 in 10.0 mi NW 12.7 mph - N/A   Overcast
3:54 PM 24.1 °F 10.1 °F 16.0 °F 71% 30.41 in 10.0 mi NW 18.4 mph - N/A   Overcast
4:13 PM 24.8 °F 12.9 °F 15.8 °F 69% 30.38 in 7.0 mi NW 13.8 mph - 0.00 in Snow Light Snow
4:54 PM 23.0 °F 9.2 °F 16.0 °F 74% 30.45 in 5.0 mi WNW 17.3 mph 20.7 mph 0.00 in Snow Light Snow
5:11 PM 21.2 °F 6.8 °F 15.8 °F 80% 30.42 in 2.5 mi NW 17.3 mph - 0.00 in Snow Light Snow
5:28 PM 21.2 °F 9.5 °F 15.8 °F 80% 30.42 in 3.0 mi NW 11.5 mph - 0.00 in Snow Light Snow
5:54 PM 21.9 °F 9.2 °F 14.0 °F 72% 30.47 in 9.0 mi NW 13.8 mph - 0.00 in Snow Light Snow
6:51 PM 21.2 °F 8.3 °F 12.2 °F 68% 30.45 in 10.0 mi WNW 13.8 mph - 0.00 in   Overcast
6:54 PM 21.0 °F 6.6 °F 10.9 °F 65% 30.49 in 10.0 mi WNW 17.3 mph - 0.00 in   Overcast
7:07 PM 19.4 °F 3.2 °F 10.4 °F 68% 30.46 in 10.0 mi NW 20.7 mph 25.3 mph N/A   Overcast
7:54 PM 17.1 °F 3.6 °F 8.1 °F 68% 30.53 in 10.0 mi NW 12.7 mph - N/A   Scattered Clouds
8:54 PM 14.0 °F 2.9 °F 7.0 °F 74% 30.54 in 10.0 mi NW 8.1 mph - N/A   Clear
9:54 PM 12.9 °F -0.2 °F 6.1 °F 74% 30.56 in 10.0 mi NW 10.4 mph - N/A   Clear
10:54 PM 10.9 °F 0.2 °F 3.9 °F 73% 30.56 in 10.0 mi NW 6.9 mph - N/A   Clear
11:54 PM 9.0 °F -3.2 °F 3.0 °F 77% 30.57 in 10.0 mi WNW 8.1 mph - N/A   Clear